Find Tianmu 1-11

NORAD ID: 58645 Int'l Des: 2023-205 Owner: TIANMU Country: CN operational
LEOCIRCULARRETROGRADESSO

現在のビュー

3D地球を読み込み中...

Tianmu 1-11について

説明を読み込み中...

次回通過

Passes for default location (London). Set your location on the main map for personalized predictions.

高度履歴

Loading altitude history...

軌道要素

1 58645U 23205A 26151.14569469 .00007527 00000-0 28804-3 0 9995
2 58645 97.3447 172.9721 0010614 70.3330 289.9053 15.26799732134927
Epoch: May 31, 2026 • Age: 13 hours

現在のステータス

高度 492.0 km
速度 7.63 km/s
衛星直下点 71.88°N, 120.8°W
打ち上げ日 Dec 25, 2023
運用期間 2.4 years
タイプ other

技術仕様

分類 Payload
質量 50.00 kg
乾燥質量 50.00 kg
総質量 50.00 kg
長さ 1.50 m
直径 1.00 m
スパン 1.50 m
形状 Box
製造者 TIANMU
バスタイプ Tianmu
フェーズステータス In Orbit
所有者/国 TIANMU/CN

Most Searched